Regional Weather Roundup
Issued by NWS

Home | Current Version | Previous Version | Graphics & Text | Print | Product List | Glossary On
Versions: 1 2 3 4 5 6 7 8 9 10 11 12 13 14 15 16 17 18 19 20 21 22 23 24 25 26 27 28 29 30 31 32 33 34 35 36 37 38 39 40 41 42 43 44 45 46 47 48 49 50
166
ASUS43 KMPX 010410
RWRMN
WEATHER ROUNDUP FOR MINNESOTA
NATIONAL WEATHER SERVICE TWIN CITIES/CHANHASSEN MN
1100 PM CDT WED AUG 31 2016


NOTE: "FAIR" INDICATES FEW OR NO CLOUDS BELOW 12,000 FEET WITH NO
SIGNIFICANT WEATHER AND/OR OBSTRUCTIONS TO VISIBILITY. N/A MEANS
CURRENT SKY AND/OR WEATHER CONDITIONS ARE NOT AVAILABLE.

MNZ060>063-068>070-010500-
   Twin Cities Metro

CITY           SKY/WX    TMP DP  RH WIND       PRES   REMARKS
TWIN CITIES    CLEAR     68  53  58 N3        30.20R
ST PAUL        CLEAR     63  57  81 CALM      30.21R
CRYSTAL        CLEAR     60  52  74 CALM      30.20R
BLAINE         CLEAR     64  55  72 CALM      30.21R
LAKEVILLE      CLEAR     55  55 100 CALM      30.21R
EDEN PRAIRIE   CLEAR     66  55  67 NE3       30.20R
LAKEVILLE      CLEAR     55  55 100 CALM      30.21R
SOUTH ST PAUL  CLEAR     63  56  78 CALM      30.20S
LAKE ELMO      FAIR      57  55  94 CALM      30.22R
$$
MNZ001>005-007-008-013>017-022>024-027-028-010500-
   Northwest Minnesota

CITY           SKY/WX    TMP DP  RH WIND       PRES   REMARKS
BEMIDJI        CLOUDY    55  53  92 CALM      30.26R
HALLOCK        CLEAR     57  54  88 E5        30.25R
ROSEAU         CLEAR     54  48  82 E3        30.26R
WARROAD        CLEAR     64  57  77 E14       30.27S
CROOKSTON      CLOUDY    61  55  82 E7        30.25R
FOSSTON        PTCLDY    54  52  94 CALM      30.26R
DETROIT LAKES  CLOUDY    63  55  77 E3        30.25R
MOORHEAD       PTCLDY    61  54  77 NE6       30.22S
PARK RAPIDS    PTCLDY    62  54  74 E5        30.24S
MAHNOMEN       FAIR      57  55  92 E5        30.24R
$$
MNZ006-009>011-018-025>026-010500-
   North Central Minnesota

CITY           SKY/WX    TMP DP  RH WIND       PRES   REMARKS
BAUDETTE       CLEAR     57  52  83 NE8       30.27R
FLAG ISLAND    CLEAR     61  52  72 CALM      30.27S
INTL FALLS     CLEAR     59  51  75 E5        30.27R
WASKISH        CLEAR     55  52  88 NE3       30.26S
BIG FORK       CLEAR     48  46  93 CALM      30.26S
LONGVILLE      CLEAR     54  54 100 CALM      30.25R
GRAND RAPIDS   CLEAR     53  53 100 CALM      30.27R FOG
CRANE LAKE     PTCLDY    52  52 100 NW1       30.29R
ORR            CLEAR     57  52  82 CALM      30.25R
COOK           CLEAR     52  52 100 CALM      30.27R
WALKER         FAIR      58  55  91 NE3       30.25S
$$
MNZ012-019>021-037-010500-
   Northeast Minnesota

CITY           SKY/WX    TMP DP  RH WIND       PRES   REMARKS
DULUTH         PTCLDY    55  54  96 CALM      30.24R
ELY            PTCLDY    61  52  72 NE3       30.26R
HIBBING        CLEAR     49  49 100 CALM      30.25R
EVELETH        CLEAR     53  51  95 N3        30.26R
DULUTH HARBOR  CLEAR     66  61  82 N5        30.23R
TWO HARBORS    CLEAR     59  54  82 NW5       30.22S
SILVER BAY     CLOUDY    57  55  94 CALM      30.22S
GRAND MARAIS     N/A     60  45  57 N6        30.25
G MARAIS ARPRT PTCLDY    52  45  76 N7        30.28S
$$
MNZ029>031-032-039>041-046>048-054>057-064-010500-
   West Central Minnesota

CITY           SKY/WX    TMP DP  RH WIND       PRES   REMARKS
FERGUS FALLS   PTCLDY    63  57  82 E6        30.23R
WHEATON        CLEAR     63  57  82 SE3       30.23R
MORRIS         CLEAR     63  57  82 CALM      30.21R
ALEXANDRIA     CLEAR     63  56  78 E7        30.24R
ELBOW LAKE     FAIR      65  58  79 NE3       30.22S
WADENA         PTCLDY    57  54  88 NE5       30.23S
GLENWOOD       CLEAR     59  55  88 NE6       30.24R
APPLETON       CLEAR     64  57  77 CALM      30.21R
BENSON         CLEAR     59  55  88 CALM      30.22R
ORTONVILLE     CLEAR     66  57  72 CALM      30.21R
MADISON        CLEAR     64  63  94 CALM      30.21S
WILLMAR        FAIR      63  57  82 NE5       30.23S
$$
MNZ033>034-036-042>043-049>051-058-059-010500-
   Central Minnesota

CITY           SKY/WX    TMP DP  RH WIND       PRES   REMARKS
ST CLOUD       CLOUDY    61  55  81 N5        30.22R
SAUK CENTRE    FAIR      59  55  85 CALM      30.23S
PAYNESVILLE    CLEAR     57  57 100 CALM      30.23S
AITKIN         HAZE      54  48  82 CALM      30.23S VSB 1
PINE RIVER     CLOUDY    55  54  94 CALM      30.28R
BRAINERD       PTCLDY    58  57  97 NE3       30.24R
STAPLES        PTCLDY    61  54  77 CALM      30.24S
LONG PRAIRIE   FAIR      57  54  88 CALM      30.24R
LITTLE FALLS   CLOUDY    61  54  77 NE3       30.23S
LITCHFIELD     CLEAR     66  55  68 CALM      30.23R
BUFFALO        CLEAR     62  55  75 CALM      30.22R
MAPLE LAKE     CLEAR     58  57  95 CALM      30.23R
HUTCHINSON     CLEAR     61  59  94 CALM      30.23R
$$
MNZ037-044-045-052-053-010500-
   East Central Minnesota

CITY           SKY/WX    TMP DP  RH WIND       PRES   REMARKS
PRINCETON      CLEAR     61  55  82 CALM      30.22R
MORA           MOCLDY    59  52  77 CALM      30.24R
CAMBRIDGE      PTCLDY    61  52  72 CALM      30.20S
MOOSE LAKE     MOCLDY    57  54  88 CALM      30.22R
HINCKLEY       MOCLDY    61  55  82 N3        30.23R
CLOQUET        CLEAR     55  52  88 N3        30.24R
MCGREGOR       PTCLDY    55  52  88 CALM      30.24S
$$
MNZ071>073-080-081-089-090-097-098-010500-
   Southwest Minnesota

CITY           SKY/WX    TMP DP  RH WIND       PRES   REMARKS
MONTEVIDEO     CLEAR     63  57  82 CALM      30.23S
GRANITE FALLS  CLEAR     65  61  87 CALM      30.23R
CANBY          CLEAR     62  59  91 CALM      30.23R
MARSHALL       CLEAR     62  59  90 W3        30.22R
REDWOOD FALLS  CLEAR     67  59  75 CALM      30.21R
OLIVIA         CLEAR     64  55  72 CALM      30.21R
WINDOM         CLEAR     61  57  88 CALM      30.23R
WORTHINGTON    CLEAR     60  57  89 CALM      30.24R
JACKSON        PTCLDY    59  55  88 CALM      30.23R
TRACY          CLEAR     65  62  89 CALM      30.22S
SLAYTON        CLEAR     59  57  94 CALM      30.24S
$$
MNZ065>067-074>077-082>085-091>093-010500-
   South Central Minnesota

CITY           SKY/WX    TMP DP  RH WIND       PRES   REMARKS
MANKATO        CLEAR     65  57  75 CALM      30.21R
NEW ULM        CLEAR     64  61  88 CALM      30.21R
ST JAMES       CLEAR     63  61  94 CALM      30.22R
FAIRMONT       CLEAR     62  58  86 CALM      30.22R
GLENCOE        CLEAR     63  61  93 CALM      30.21R
FARIBAULT      CLEAR     55  55 100 CALM      30.21S
OWATONNA       CLEAR     57  55  94 CALM      30.21S
WASECA         CLEAR     59  54  82 CALM      30.22R
ALBERT LEA     CLEAR     57  57 100 CALM      30.21S
$$
MNZ078>079-086>088-094>096-010500-
   Southeast Minnesota

CITY           SKY/WX    TMP DP  RH WIND       PRES   REMARKS
ROCHESTER      CLEAR     61  54  77 NE6       30.21S
RED WING       CLEAR     59  55  88 CALM      30.19R
STANTON        CLEAR     55  54  94 CALM      30.20R
DODGE CENTER   CLEAR     55  54  94 CALM      30.22R
WINONA         CLEAR     59  55  88 CALM      30.19R
AUSTIN         CLEAR     57  54  88 CALM      30.20S
PRESTON        CLEAR     59  52  77 N5        30.21R
$$
ABBREVIATIONS USED IN REMARKS
   TC - TEMPERATURES IN CELSIUS
  WCI - WIND CHILL INDEX
   HX - HEAT INDEX
  VSB - VISIBILITY
$$




USA.gov is the U.S. government's official web portal to all federal, state and local government web resources and services.